Flag for Malaysia Weather past 2 weeks in Kuala Lumpur, Malaysia

Now
79 °F

Partly cloudy.


Feels Like: 82 °F
Forecast: 74 / 89 °F
Wind: 1 mph from Northwest

Location: Sultan Abdul Aziz Shah-Subang


UV Index: 7 (High)

Visibility: 5 mi


Pressure: 29.86 "Hg

Humidity: 89%

Dew point: 75 °F

Location of Kuala LumpurLocation

Historic Weather in Kuala Lumpur

°F

Kuala Lumpur temperature yesterday

Maximum temperature yesterday: 91 °F (at 2:00 PM)
Minimum temperature yesterday: 77 °F (at 2:00 AM)
Average temperature yesterday: 83 °F

Past Weeks' High & Low Weather Summary

 TemperatureHumidityPressure
High95 °F (Apr 7, 3:00 PM)100% (Apr 4, 3:00 AM)29.95 "Hg (Apr 4, 3:00 AM)
Low73 °F (Apr 12, 2:00 AM)44% (Apr 7, 3:00 PM)29.68 "Hg (Apr 2, 5:00 PM)
Average82 °F81%29.84 "Hg
* Reported Apr 1 11:00 PM — Apr 16 11:00 PM, Kuala Lumpur, Weather by CustomWeather, © 2014

Note: Actual official high and low records may vary slightly from our data, if they occured in-between our weather recording intervals... More about our weather records

Advertising

Historic Weather Conditions — Data for Previous 24 hours

 ConditionsComfort  
Time TempWeatherWind HumidityBarometerVisibility
11:00 PM
Apr 16
81 °FPassing clouds.3 mph84%29.83 "Hg5 mi
10:00 PM81 °FPassing clouds.2 mph84%29.83 "Hg5 mi
9:00 PM81 °FPassing clouds.3 mph84%29.80 "Hg6 mi
8:00 PM81 °FPartly cloudy.1 mph84%29.77 "HgN/A
7:00 PM82 °FBroken clouds.3 mph79%29.77 "HgN/A
6:00 PM84 °FBroken clouds.3 mph74%29.74 "HgN/A
5:00 PM88 °FThunderstorms. Broken clouds.7 mph66%29.74 "HgN/A
4:00 PM91 °FBroken clouds.13 mph56%29.74 "HgN/A
3:00 PM91 °FBroken clouds.13 mph56%29.74 "HgN/A
2:00 PM91 °FBroken clouds.10 mph59%29.80 "HgN/A
1:00 PM90 °FBroken clouds.8 mph63%29.83 "HgN/A
12:00 PM88 °FBroken clouds.3 mph62%29.86 "HgN/A
11:00 AM88 °FPartly sunny.2 mph62%29.89 "HgN/A
10:00 AM84 °FBroken clouds.2 mph70%29.89 "HgN/A
9:00 AM81 °FBroken clouds.3 mph84%29.86 "HgN/A
7:00 AM77 °FLight rain. Partly cloudy.1 mph89%29.83 "HgN/A
6:00 AM77 °FPassing clouds.2 mph89%29.83 "Hg6 mi
5:00 AM77 °FPartly cloudy.6 mph94%29.83 "Hg4 mi
4:00 AM77 °FPassing clouds.No wind94%29.80 "Hg4 mi
3:00 AM77 °FPartly cloudy.3 mph94%29.80 "HgN/A
2:00 AM77 °FPartly cloudy.No wind94%29.86 "HgN/A
1:00 AM79 °FPartly cloudy.2 mph89%29.89 "HgN/A
12:00 AM79 °FPartly cloudy.5 mph89%29.89 "HgN/A
Weather by CustomWeather, © 2014

See weather overview